Starlink 2449

operational
NORAD ID: 48112 Int'l Des: 2021-027 Owner: SPXS Country: US Constellation: starlink
LEOCIRCULAR

About Starlink 2449

Description loading...

Live Position

Loading 3D Globe...

Upcoming Passes

Altitude History

Altitude vs Time

uPlot chart will show altitude changes over time

Two-Line Element Set

1 48112U 21027W 26102.00002315 .00000934 00000-0 41858-4 0 9996
2 48112 53.1611 13.0493 0001397 80.8663 211.2705 15.31699627 6087
Epoch: Apr 12, 2026 • Age: 6 hours

Current Status

Altitude 486.6 km
Velocity 7.62 km/s
Sub-Earth Point -44.42°S, 52.3°W
Launch Date Apr 7, 2021
Age 5 years
Type internet

Technical Details

Classification Payload
Mass 260.00 kg
Dry Mass 248.00 kg
Total Mass 260.00 kg
Length 0.20 m
Diameter 2.80 m
Span 9.00 m
Shape Box + pan
Manufacturer SPXS
Bus Type Starlink
Phase Status In Orbit
Owner/State SPXS/US

Large Constellations

Loading constellations...